Weather History for Akron Canton, OH

Change the Weather History Date:

Monday, November 26, 2012

  Actual Average Record
Temperature  
Mean Temperature 33 °F 38 °F  
Max Temperature 42 °F 44 °F 70 °F (1896)
Min Temperature 24 °F 31 °F 8 °F (1950)
Degree Days  
Heating Degree Days 32 28  
Month to date heating degree days 638 590  
Since 1 July heating degree days 1173 1145  
Cooling Degree Days 0 0  
Month to date cooling degree days 0 0  
Year to date cooling degree days 1046 652  
Moisture  
Dew Point 26 °F    
Average Humidity 70    
Maximum Humidity 85    
Minimum Humidity 54    
Precipitation  
Precipitation T in 0.11 in 1.21 in (1986)
Month to date precipitation 0.74 2.87  
Year to date precipitation 33.71 36.35  
Snow  
Snow T in 0.10 in - ()
Month to date snowfall 0.4 2.3  
Since 1 July snowfall 0.4 2.7  
Since 1 September snowfall 0.4 2.7  
Snow Depth 0.00 in    
Sea Level Pressure  
Sea Level Pressure 30.16 in    
Wind  
Wind Speed 3 mph (WNW)    
Max Wind Speed 10 mph    
Max Gust Speed 12 mph    
Visibility 5 miles    
Events Snow    
T = Trace of Precipitation, MM = Missing Value Source: NWS Daily Summary

Daily Weather History Graph

Daily Weather History Graph

Search for Another Location

Airport:

Trip Planner

Search our weather history database for the weather conditions in past years. The results will help you decide how hot, cold, wet, or windy it might be!

Date:

Astronomy

Nov. 26, 2012 Rise Set
Actual Time 7:26 AM EST 5:00 PM EST
Civil Twilight 6:55 AM EST 5:30 PM EST
Nautical Twilight 6:22 AM EST 6:04 PM EST
Astronomical Twilight 5:49 AM EST 6:37 PM EST
Moon 3:51 PM EST (11/26) 5:34 AM EST (11/26)
Length of Visible Light 10h 34m
Length of Day
9h 33m
Waxing Gibbous, 97% of the Moon is Illuminated
Nov 26
Waxing Gibbous
Nov 28
Full
Dec 6
Last Quarter
Dec 13
New
Dec 20
First Quarter

Hourly Weather History & Observations

Time (EST) Temp. Windchill Dew Point Humidity Pressure Visibility Wind Dir Wind Speed Gust Speed Precip Events Conditions
12:51 AM 30.0 °F 26.5 °F 23.0 °F 75% 30.03 in 6.0 mi SW 3.5 mph - N/A   Haze
1:51 AM 28.9 °F 25.2 °F 23.0 °F 78% 30.04 in 6.0 mi SW 3.5 mph - N/A   Haze
2:51 AM 30.0 °F - 24.1 °F 79% 30.05 in 6.0 mi Calm Calm - N/A   Haze
3:51 AM 28.9 °F 25.2 °F 24.1 °F 82% 30.07 in 5.0 mi WSW 3.5 mph - N/A   Haze
4:51 AM 30.9 °F 26.2 °F 25.0 °F 79% 30.09 in 5.0 mi West 4.6 mph - N/A   Haze
5:51 AM 30.0 °F 25.2 °F 24.1 °F 79% 30.12 in 5.0 mi West 4.6 mph - N/A   Haze
6:51 AM 30.0 °F 25.2 °F 25.0 °F 82% 30.14 in 5.0 mi WSW 4.6 mph - N/A   Haze
7:51 AM 24.1 °F 18.2 °F 19.9 °F 84% 30.17 in 3.0 mi WNW 4.6 mph - N/A   Scattered Clouds
8:51 AM 33.1 °F 30.0 °F 28.0 °F 82% 30.18 in 5.0 mi WNW 3.5 mph - N/A   Haze
9:51 AM 36.0 °F - 28.0 °F 73% 30.20 in 5.0 mi Calm Calm - N/A   Haze
10:51 AM 37.0 °F - 25.0 °F 62% 30.21 in 6.0 mi Calm Calm - N/A   Haze
11:51 AM 39.9 °F - 26.1 °F 58% 30.20 in 6.0 mi Calm Calm - N/A   Haze
12:51 PM 39.0 °F 34.0 °F 25.0 °F 57% 30.18 in 6.0 mi West 6.9 mph - N/A   Haze
1:51 PM 41.0 °F 35.8 °F 26.1 °F 55% 30.18 in 6.0 mi NW 8.1 mph - N/A   Haze
2:51 PM 41.0 °F 38.0 °F 26.1 °F 55% 30.19 in 6.0 mi WNW 4.6 mph - N/A   Haze
3:51 PM 39.9 °F 37.8 °F 26.1 °F 58% 30.19 in 6.0 mi NNW 3.5 mph - N/A   Haze
4:51 PM 39.0 °F - 27.0 °F 62% 30.19 in 5.0 mi Calm Calm - N/A   Haze
5:51 PM 37.9 °F 34.4 °F 26.1 °F 62% 30.20 in 6.0 mi North 4.6 mph - N/A   Haze
6:51 PM 37.9 °F 34.4 °F 26.1 °F 62% 30.21 in 6.0 mi North 4.6 mph - N/A   Haze
7:51 PM 37.9 °F - 26.1 °F 62% 30.22 in 6.0 mi Calm Calm - N/A   Haze
8:51 PM 37.0 °F 34.5 °F 26.1 °F 65% 30.23 in 8.0 mi East 3.5 mph - N/A   Overcast
9:51 PM 37.0 °F - 26.1 °F 65% 30.23 in 8.0 mi Calm Calm - N/A   Overcast
10:51 PM 35.1 °F 30.1 °F 30.0 °F 82% 30.24 in 4.0 mi NNW 5.8 mph - 0.00 in Snow Light Snow
11:34 PM 35.6 °F 32.8 °F 30.2 °F 81% 30.22 in 2.0 mi West 3.5 mph - 0.00 in Snow Light Snow
11:51 PM 34.0 °F 31.0 °F 30.9 °F 89% 30.25 in 2.0 mi WSW 3.5 mph - 0.00 in Snow Light Snow